Temperature
14 13 13 13 13 13 13 13 13 13 13 12 12 12 12 12 12 11 11 11 11 11 10 10 9 9 9 9 9 9 9 8 8 8 8 8 8 7 7 7 7 7 8
13 13 13 13 13 13 13 13 12 12 12 12 12 12 12 12 11 11 11 10 10 10 10 10 9 9 9 8 8 8 8 8 8 8 8 7 7 7 7 7 7 7 7
13 13 13 13 13 12 12 12 12 12 12 12 12 12 11 11 11 11 10 10 10 10 10 9 9 9 9 8 8 8 8 7 7 7 7 7 7 7 6 6 6 7 6
13 13 13 13 12 12 12 12 12 12 12 11 11 11 11 11 10 10 10 10 9 9 9 9 9 9 8 8 8 7 7 7 7 7 7 6 6 6 6 6 6 6 6
13 13 12 12 12 12 12 12 12 11 11 11 11 11 11 10 10 10 9 9 9 9 9 8 8 8 8 8 7 7 7 6 6 6 6 6 6 6 6 6 6 6 6
12 12 12 12 12 12 11 11 11 11 11 11 11 11 10 10 10 9 9 9 8 8 8 8 8 8 7 7 7 7 6 6 6 6 6 6 6 5 5 5 5 5 5
12 12 12 12 12 11 11 11 11 11 11 10 10 10 10 10 9 9 9 8 8 8 8 7 7 7 7 7 6 6 6 6 6 6 6 6 5 5 5 5 5 5 5
11 11 11 11 11 11 11 11 11 10 10 10 9 9 8 8 8 9 8 8 7 7 7 7 7 6 6 6 6 6 6 5 5 5 5 5 5 5 5 4 4 4 4
11 11 11 11 11 11 11 11 10 10 10 9 9 8 8 8 7 8 8 7 7 7 7 6 6 6 6 5 5 5 5 5 5 5 5 5 5 4 4 4 4 4 4
11 11 11 11 10 10 10 10 10 10 9 9 9 8 8 7 6 6 7 7 6 6 6 6 6 6 5 5 5 5 5 5 5 4 4 4 4 4 4 4 4 4 4
10 10 10 10 10 10 10 10 9 9 9 8 8 8 7 7 6 5 5 6 6 6 6 6 5 5 5 4 4 4 4 4 4 4 4 4 4 4 3 4 3 3 3
10 10 10 10 10 10 10 9 9 9 8 8 8 7 7 6 6 5 5 5 5 5 5 5 5 5 4 4 4 4 4 4 4 4 4 3 3 3 3 3 3 3 3
10 10 9 10 9 9 9 9 8 8 8 8 7 7 6 6 5 5 4 4 4 5 5 5 5 4 4 4 4 4 4 4 4 3 3 3 3 3 3 3 3 3 2
9 9 9 9 9 9 8 8 8 8 7 7 7 6 6 5 5 5 4 4 3 3 4 4 4 4 4 4 4 4 3 3 3 3 3 3 3 3 2 2 2 2 2
9 9 9 9 8 8 8 8 7 7 7 7 6 6 5 5 5 4 4 3 3 2 3 3 3 4 3 3 3 3 3 3 3 3 3 2 2 2 2 2 2 2 1
8 8 8 8 8 8 8 7 7 7 6 6 6 5 5 5 4 4 4 3 3 2 2 3 3 3 3 3 3 3 3 3 3 2 2 2 2 2 2 1 1 1 1
8 8 8 8 7 7 7 6 6 6 6 5 5 5 5 4 4 4 3 3 3 2 2 3 3 3 3 3 3 3 2 2 2 2 2 1 1 1 1 1 1 1 1
8 7 7 7 7 6 6 6 6 5 5 5 5 4 4 4 4 3 3 3 3 2 2 2 3 3 3 2 2 2 2 2 2 2 2 1 1 1 1 1 1 1 1
7 7 7 6 6 6 6 5 5 5 4 4 4 4 4 4 3 3 3 3 3 2 2 2 2 2 2 2 2 2 2 2 1 1 1 1 1 1 1 1 1 0 0
6 6 6 6 6 5 5 5 4 4 4 4 3 3 3 3 3 3 2 2 2 2 2 2 2 2 2 1 1 1 1 1 1 1 1 1 1 1 1 0 0 -0 -0
5 5 5 5 5 5 4 4 4 3 3 3 3 3 3 3 3 2 2 2 2 2 2 1 1 1 1 1 0 0 0 0 1 1 1 0 0 0 0 -0 -0 -0 -0
5 5 5 4 4 4 4 4 3 3 3 2 2 2 2 2 2 2 2 2 2 1 1 1 1 0 0 0 -0 -0 -1 -1 -1 0 -0 0 -0 -0 -0 -0 -1 -1 -1
4 4 4 4 4 3 3 3 3 2 2 2 2 2 2 2 2 2 2 2 1 1 1 1 0 0 -0 -0 -0 -1 -1 -1 -1 -1 -1 -1 -0 -1 -0 -0 -1 -1 -1
3 3 3 3 3 3 3 2 2 2 2 2 2 2 1 1 1 1 1 1 1 1 1 0 0 -0 -0 -0 -1 -1 -1 -1 -1 -1 -1 -1 -1 -1 -1 -1 -1 -1 -1
2 2 2 2 2 2 2 2 2 1 2 2 1 1 1 1 1 1 1 1 1 1 1 0 0 -0 -0 -0 -1 -1 -1 -2 -2 -2 -2 -2 -2 -2 -1 -1 -1 -1 -1
2 2 2 2 2 2 1 1 1 1 1 1 1 1 1 1 1 0 0 0 0 0 0 0 0 -0 -0 -1 -1 -1 -2 -2 -3 -3 -2 -3 -3 -3 -2 -1 -1 -1 -1
Wind_Speed
6 6 5 5 5 4 4 4 4 4 4 4 4 4 4 4 4 4 5 8 8 8 8 9 9 10 10 11 11 12 12 13 13 14 14 15 15 15 16 16 16 17 17
6 6 5 5 4 4 4 4 4 3 3 3 3 3 3 3 3 3 3 5 7 8 8 9 10 10 11 11 12 12 13 13 14 14 15 16 16 16 17 17 17 17 18
7 6 5 4 4 4 4 4 4 3 2 2 2 2 2 2 2 2 3 3 4 6 8 9 9 10 11 11 12 12 13 14 14 15 15 16 17 17 17 18 18 18 18
7 6 5 4 4 4 4 3 3 2 2 1 1 1 1 1 1 2 2 3 3 4 5 7 9 10 11 12 12 13 13 14 15 15 16 17 17 17 18 18 19 19 19
6 6 4 4 5 4 3 3 2 1 1 1 0 0 1 1 0 0 1 2 3 4 4 5 7 8 10 11 12 13 14 15 15 16 17 17 18 18 18 19 19 20 20
6 6 5 5 4 3 2 2 2 2 1 0 0 1 1 1 1 1 1 2 3 4 5 6 6 7 8 10 12 13 14 15 16 17 17 18 18 18 19 19 20 20 21
6 6 5 5 4 3 3 3 2 2 1 1 1 1 1 2 2 2 2 2 3 4 5 6 6 7 7 9 10 13 15 16 17 18 18 18 19 19 19 20 20 20 21
6 5 5 4 4 3 3 3 2 1 1 0 1 1 2 2 2 3 2 3 4 4 5 6 7 8 8 8 9 12 14 17 18 18 19 19 19 20 20 20 20 21 21
6 5 5 5 4 3 3 3 3 2 1 1 1 1 2 2 2 2 3 3 4 4 5 6 7 8 9 8 9 11 15 17 18 19 20 20 20 21 20 20 21 21 21
5 5 5 5 4 3 3 3 3 2 2 2 1 1 2 2 2 2 2 3 4 5 6 6 7 7 8 8 9 12 15 17 18 19 20 21 21 21 21 21 21 21 21
5 5 5 5 4 4 3 3 3 2 2 2 1 1 1 2 3 3 4 5 5 4 5 6 6 7 8 9 9 12 15 17 18 19 20 21 21 22 22 21 21 21 21
4 5 6 5 5 4 4 4 3 3 3 2 2 2 1 2 2 3 5 6 6 5 6 5 5 6 8 9 10 13 16 17 18 19 19 20 21 21 21 22 21 21 21
4 6 6 5 5 4 4 4 3 3 3 3 3 2 2 3 3 3 5 6 7 6 5 4 5 6 8 9 11 14 15 16 17 18 19 20 21 21 21 21 21 21 21
5 6 6 5 5 5 5 4 3 3 3 3 3 3 2 2 3 3 4 5 6 5 5 6 5 6 8 10 12 15 14 16 17 18 19 20 20 20 20 20 20 20 20
5 7 6 6 6 5 5 4 3 3 3 2 2 2 2 2 3 3 3 4 5 6 7 6 5 7 9 10 12 14 14 16 17 18 19 19 19 19 19 19 19 19 19
6 6 6 6 6 5 4 4 3 3 3 2 2 2 2 3 3 3 3 4 5 6 7 6 7 9 10 10 13 13 14 16 16 16 18 18 19 19 19 19 19 19 19
6 6 6 6 5 5 5 4 3 3 3 3 2 3 3 3 3 3 3 4 5 6 8 9 8 9 10 11 11 12 13 13 12 15 17 18 18 18 18 18 18 18 19
6 6 6 6 5 5 5 5 4 4 4 3 3 3 4 3 4 4 4 5 5 6 8 11 9 9 10 10 11 12 12 12 12 14 17 17 17 17 17 17 18 18 18
5 5 5 6 5 5 5 4 4 4 4 4 3 4 4 4 5 4 5 5 6 6 7 8 10 8 8 9 10 11 11 10 11 13 15 15 16 17 17 17 17 18 18
5 5 5 5 5 4 4 4 4 4 4 3 3 4 4 5 5 6 5 6 6 7 7 8 8 8 8 9 9 9 10 10 10 11 12 13 14 16 16 16 16 17 17
3 3 4 4 4 3 3 4 4 4 3 3 4 4 4 5 6 6 6 6 6 6 6 7 8 8 8 8 8 8 10 11 11 8 10 10 11 10 12 13 14 16 17
3 3 3 3 3 2 2 3 3 4 4 4 4 4 4 5 6 8 8 8 8 7 7 7 7 8 9 9 9 9 9 10 8 7 10 11 9 9 10 10 14 17 17
3 3 3 3 2 2 2 2 2 3 4 3 4 4 4 4 6 6 7 8 8 9 9 8 9 9 10 9 9 10 9 10 10 9 9 9 9 10 10 11 16 17 17
3 3 3 2 2 1 1 1 2 3 3 3 3 4 4 5 5 6 7 7 7 7 8 7 8 9 9 9 8 9 10 10 10 7 7 8 9 10 10 11 14 16 16
3 3 2 2 2 1 1 0 1 2 2 2 3 3 4 4 6 7 6 7 7 7 7 9 10 11 11 11 9 6 7 7 8 7 5 6 8 10 9 8 10 14 16
3 3 2 2 1 1 1 0 2 1 1 2 3 3 4 5 6 7 6 6 7 8 8 8 8 8 8 7 8 6 6 6 7 5 5 5 7 7 6 6 8 11 13
Wind_Direction
137 135 129 125 121 116 112 106 109 105 99 92 89 86 83 80 76 72 67 49 36 31 26 19 13 10 5 2 360 356 351 348 347 344 340 337 335 333 330 327 325 322 320
140 139 133 127 121 120 114 110 104 106 102 96 94 88 84 83 77 70 63 57 43 31 24 16 10 5 1 358 355 352 349 347 344 342 339 336 333 330 328 325 323 322 319
141 138 132 129 124 126 123 113 106 98 99 109 110 98 85 77 73 63 53 40 33 32 23 12 6 0 357 354 351 349 347 344 341 339 337 334 332 329 327 324 322 321 319
141 138 133 129 131 130 128 123 118 118 109 98 102 106 109 107 80 49 51 30 13 3 9 7 359 355 352 349 346 343 341 340 337 336 335 332 329 327 325 324 321 319 318
145 141 137 134 138 136 135 131 126 123 121 103 122 219 215 198 160 84 37 10 2 350 342 344 344 345 344 344 342 340 338 336 336 334 332 330 327 325 323 321 320 318 317
150 143 139 138 142 140 142 142 129 109 97 92 210 239 239 231 223 224 317 337 341 335 333 330 328 330 333 337 339 339 336 335 333 331 330 328 325 322 321 320 319 318 317
153 149 146 147 152 155 155 149 138 121 81 44 234 256 226 222 233 250 278 300 323 326 323 323 324 326 323 325 333 336 334 333 331 329 328 326 325 323 321 319 318 318 317
156 158 157 157 163 163 160 159 150 150 93 50 297 274 271 226 219 251 257 277 303 316 316 320 321 323 323 320 326 329 331 331 329 327 326 324 323 322 321 321 320 318 316
163 164 165 162 167 172 176 179 179 178 175 157 338 300 288 290 305 238 259 273 295 303 305 313 313 317 320 318 320 325 329 329 327 325 324 324 323 321 320 320 319 318 317
170 168 168 169 172 178 181 186 198 208 202 204 192 305 305 314 297 291 258 278 302 300 302 304 307 310 314 313 315 320 324 325 325 325 324 324 323 321 320 320 318 317 317
173 173 176 178 180 181 185 187 193 210 219 225 219 241 259 273 278 282 289 301 301 293 299 299 303 307 307 308 312 317 320 322 322 322 323 323 322 321 320 319 318 318 317
179 180 183 185 183 184 189 191 195 207 217 222 229 232 254 265 284 280 286 299 302 301 298 292 296 307 310 309 309 315 316 318 320 321 322 322 321 319 319 319 318 318 317
188 190 188 187 185 187 190 191 198 205 213 222 229 238 252 267 285 284 285 295 300 301 296 289 300 305 310 313 313 314 312 315 318 320 320 320 319 317 316 317 317 317 318
189 188 188 187 189 186 187 189 197 203 209 221 230 236 250 262 271 275 282 292 298 295 294 301 305 304 314 313 313 312 310 314 317 318 319 320 320 319 318 318 318 318 319
179 182 181 183 186 185 186 188 196 198 201 215 230 245 256 264 269 272 277 282 288 296 300 303 309 309 314 311 312 311 312 316 315 316 318 319 320 321 320 319 319 319 319
175 175 178 181 182 181 184 186 191 197 206 214 227 243 262 267 272 275 274 277 277 281 286 295 300 306 309 308 310 312 312 314 312 315 319 319 320 322 321 319 319 319 319
176 178 179 180 182 182 180 186 194 196 210 224 233 243 259 275 278 276 279 277 276 280 282 291 297 306 308 308 313 313 313 313 313 315 318 318 319 321 322 321 321 320 320
175 178 180 183 185 187 187 191 196 204 213 224 238 252 265 272 276 283 281 278 277 278 283 292 300 308 309 311 314 313 314 313 312 313 316 316 318 322 322 322 322 321 320
173 176 182 186 186 190 193 200 204 212 220 231 239 253 266 272 276 282 288 286 283 284 285 289 298 307 309 315 316 313 315 316 314 313 314 315 316 320 321 320 321 321 319
174 177 182 184 186 191 195 203 212 218 228 239 248 257 263 269 277 285 286 290 293 292 291 291 296 305 310 317 318 318 318 319 316 315 317 317 317 317 319 320 320 321 320
162 168 173 174 176 185 198 210 217 224 233 247 259 264 269 280 289 290 290 293 295 293 294 296 299 305 310 318 318 318 314 317 315 317 322 321 320 318 320 320 323 324 322
151 154 161 163 168 176 189 215 226 229 234 247 261 271 279 280 287 291 294 297 296 294 297 296 296 300 304 310 314 313 314 318 316 323 321 316 318 316 319 319 324 326 326
151 153 150 157 167 171 187 216 245 245 242 251 263 275 285 289 291 293 295 294 292 293 294 295 292 295 301 306 309 309 310 310 305 313 316 307 315 314 317 316 322 326 326
154 153 149 152 161 162 164 242 273 251 254 262 271 278 284 293 297 305 303 301 300 297 296 293 293 297 300 302 300 300 303 303 302 308 317 304 312 313 316 314 320 326 327
151 151 148 149 142 142 135 206 300 263 266 279 290 288 290 296 311 318 311 305 305 310 305 297 297 297 300 301 306 308 311 316 314 314 323 309 313 315 310 308 320 327 328
143 138 128 134 129 125 124 206 314 288 286 298 298 298 299 311 318 319 313 309 308 313 316 316 312 308 306 306 309 307 307 311 315 309 323 320 315 323 315 311 324 331 329
Height
1553 1553 1554 1554 1555 1555 1555 1555 1555 1555 1554 1554 1553 1553 1552 1551 1550 1549 1548 1546 1545 1543 1541 1539 1537 1534 1532 1530 1527 1525 1522 1520 1517 1515 1512 1509 1507 1504 1502 1499 1497 1494 1492
1552 1553 1553 1554 1554 1554 1555 1555 1554 1554 1554 1553 1553 1552 1551 1551 1550 1548 1547 1546 1544 1542 1540 1537 1535 1533 1530 1528 1525 1523 1520 1518 1515 1512 1510 1507 1504 1501 1499 1496 1494 1491 1488
1552 1552 1553 1553 1553 1554 1554 1554 1553 1553 1553 1553 1552 1551 1550 1549 1548 1547 1546 1545 1543 1541 1538 1536 1534 1531 1529 1526 1523 1521 1518 1515 1512 1510 1507 1504 1501 1498 1496 1493 1490 1487 1485
1551 1552 1552 1553 1553 1553 1553 1553 1553 1552 1552 1552 1551 1550 1549 1548 1547 1546 1545 1543 1541 1539 1537 1534 1532 1529 1527 1524 1521 1518 1516 1513 1510 1507 1504 1501 1498 1495 1492 1490 1487 1484 1481
1549 1550 1551 1551 1552 1552 1552 1552 1552 1551 1551 1550 1550 1549 1548 1547 1545 1544 1543 1541 1540 1538 1535 1533 1530 1527 1524 1521 1519 1516 1513 1510 1507 1504 1501 1498 1495 1492 1489 1486 1483 1480 1477
1548 1549 1550 1550 1551 1551 1551 1551 1551 1550 1550 1549 1548 1547 1546 1545 1544 1543 1541 1539 1538 1536 1533 1531 1528 1525 1522 1519 1516 1513 1510 1507 1504 1501 1498 1495 1492 1488 1485 1482 1479 1475 1472
1546 1547 1548 1549 1549 1549 1550 1550 1549 1549 1548 1547 1547 1546 1544 1543 1542 1541 1539 1537 1536 1534 1531 1529 1526 1523 1520 1517 1514 1510 1507 1504 1501 1498 1495 1492 1488 1485 1481 1478 1474 1471 1468
1544 1546 1547 1547 1548 1548 1548 1548 1548 1547 1546 1546 1546 1545 1544 1543 1540 1539 1537 1535 1533 1531 1529 1526 1524 1521 1518 1514 1511 1508 1504 1501 1498 1495 1491 1488 1484 1481 1477 1474 1470 1467 1463
1542 1543 1545 1545 1546 1546 1546 1546 1546 1545 1545 1544 1544 1544 1544 1542 1539 1537 1535 1533 1531 1529 1527 1524 1521 1519 1515 1512 1509 1505 1502 1498 1494 1491 1488 1484 1480 1477 1473 1469 1466 1462 1458
1540 1541 1542 1543 1543 1544 1544 1544 1544 1544 1543 1543 1542 1541 1541 1540 1538 1535 1533 1531 1529 1527 1524 1522 1519 1516 1513 1509 1506 1502 1499 1495 1491 1487 1483 1480 1476 1472 1468 1465 1461 1457 1454
1538 1539 1540 1540 1541 1541 1542 1542 1542 1542 1541 1541 1540 1539 1538 1537 1536 1534 1531 1529 1526 1524 1521 1519 1516 1513 1510 1506 1503 1499 1495 1491 1487 1483 1479 1475 1471 1467 1464 1460 1456 1452 1449
1534 1536 1537 1538 1538 1539 1539 1539 1539 1539 1539 1538 1537 1536 1536 1535 1534 1532 1529 1526 1523 1521 1518 1516 1513 1510 1507 1503 1500 1496 1492 1488 1484 1480 1475 1471 1467 1463 1459 1455 1451 1447 1444
1531 1532 1534 1535 1535 1536 1537 1537 1537 1536 1536 1536 1535 1534 1533 1532 1531 1529 1527 1524 1521 1518 1515 1513 1511 1508 1504 1500 1497 1493 1488 1484 1480 1476 1471 1467 1463 1458 1454 1450 1446 1443 1439
1528 1529 1531 1532 1532 1533 1533 1533 1534 1533 1533 1533 1532 1531 1530 1529 1528 1526 1525 1522 1518 1515 1513 1511 1507 1504 1501 1497 1493 1489 1485 1481 1476 1472 1468 1463 1458 1454 1450 1446 1442 1438 1434
1525 1526 1527 1528 1529 1530 1530 1530 1530 1530 1530 1529 1529 1528 1527 1526 1525 1523 1522 1520 1519 1514 1510 1506 1504 1501 1498 1494 1490 1486 1482 1477 1473 1468 1464 1459 1454 1450 1445 1441 1437 1433 1429
1521 1523 1524 1525 1526 1526 1527 1527 1527 1527 1527 1526 1525 1525 1524 1523 1521 1520 1518 1517 1515 1513 1508 1504 1500 1497 1494 1490 1487 1483 1478 1473 1469 1464 1460 1455 1450 1446 1441 1437 1433 1429 1425
1518 1519 1520 1521 1522 1523 1523 1524 1524 1524 1523 1523 1522 1521 1520 1520 1518 1517 1515 1513 1511 1509 1505 1500 1497 1494 1490 1487 1482 1479 1474 1470 1465 1460 1456 1451 1446 1442 1437 1433 1429 1424 1420
1515 1516 1517 1518 1518 1519 1520 1520 1520 1520 1520 1519 1519 1518 1517 1516 1515 1513 1512 1510 1507 1505 1502 1497 1493 1490 1487 1483 1479 1475 1470 1466 1461 1457 1452 1447 1443 1438 1434 1429 1425 1421 1416
1511 1512 1513 1514 1515 1516 1516 1516 1517 1517 1516 1516 1515 1515 1514 1513 1511 1510 1508 1506 1504 1501 1498 1495 1490 1487 1483 1479 1475 1471 1467 1462 1458 1453 1448 1444 1439 1435 1430 1426 1421 1417 1412
1506 1508 1509 1510 1511 1512 1513 1513 1513 1513 1513 1512 1512 1511 1510 1509 1508 1506 1505 1503 1500 1498 1495 1491 1487 1483 1479 1476 1471 1466 1461 1458 1454 1449 1445 1440 1436 1431 1427 1422 1417 1413 1408
1502 1504 1505 1506 1507 1508 1509 1509 1510 1510 1509 1509 1508 1508 1507 1506 1504 1503 1501 1499 1497 1494 1491 1488 1484 1479 1476 1471 1468 1463 1459 1454 1450 1446 1441 1437 1432 1427 1423 1418 1414 1409 1405
1499 1500 1501 1503 1504 1504 1505 1506 1506 1506 1506 1505 1505 1504 1503 1502 1501 1499 1498 1496 1494 1491 1487 1484 1480 1477 1473 1469 1465 1461 1456 1451 1446 1443 1439 1433 1430 1424 1420 1415 1411 1406 1401
1496 1497 1498 1499 1500 1501 1502 1502 1503 1503 1503 1502 1501 1500 1499 1498 1497 1495 1493 1491 1489 1487 1484 1481 1477 1474 1470 1467 1462 1458 1454 1450 1445 1441 1436 1430 1427 1422 1417 1412 1408 1403 1398
1493 1494 1495 1496 1497 1498 1498 1499 1500 1500 1499 1499 1498 1497 1496 1495 1493 1491 1490 1487 1485 1482 1480 1477 1474 1471 1467 1464 1460 1457 1452 1447 1443 1439 1435 1429 1423 1419 1415 1410 1405 1400 1395
1490 1491 1492 1493 1494 1495 1495 1496 1496 1496 1496 1495 1495 1494 1493 1491 1490 1488 1486 1484 1481 1478 1476 1474 1471 1468 1464 1461 1458 1454 1449 1445 1440 1435 1433 1428 1422 1416 1411 1407 1402 1398 1393
1488 1489 1490 1490 1491 1492 1492 1493 1493 1493 1492 1492 1491 1490 1489 1488 1487 1485 1483 1480 1477 1475 1472 1469 1467 1464 1461 1458 1455 1452 1448 1443 1438 1434 1430 1426 1421 1416 1409 1405 1401 1396 1391